TimeEDT,TemperatureF,Dew PointF,Humidity,Sea Level PressureIn,VisibilityMPH,Wind Direction,Wind SpeedMPH,Gust SpeedMPH,PrecipitationIn,Events,Conditions,WindDirDegrees,DateUTC
12:54 AM,63.0,60.1,90,30.11,10.0,Calm,Calm,-,N/A,,Clear,0,2013-08-20 04:54:00
1:54 AM,63.0,60.1,90,30.11,10.0,Calm,Calm,-,N/A,,Clear,0,2013-08-20 05:54:00
2:54 AM,62.1,60.1,93,30.11,10.0,SSW,4.6,-,N/A,,Clear,210,2013-08-20 06:54:00
3:54 AM,62.1,59.0,90,30.11,10.0,Calm,Calm,-,N/A,,Partly Cloudy,0,2013-08-20 07:54:00
4:54 AM,62.1,59.0,90,30.11,4.0,Calm,Calm,-,N/A,,Partly Cloudy,0,2013-08-20 08:54:00
5:54 AM,60.1,57.9,93,30.12,3.0,Calm,Calm,-,N/A,,Partly Cloudy,0,2013-08-20 09:54:00
6:54 AM,59.0,57.0,93,30.13,4.0,Calm,Calm,-,N/A,,Scattered Clouds,0,2013-08-20 10:54:00
7:54 AM,62.1,59.0,90,30.15,6.0,Calm,Calm,-,N/A,,Scattered Clouds,0,2013-08-20 11:54:00
8:54 AM,68.0,64.0,87,30.17,8.0,Calm,Calm,-,N/A,,Scattered Clouds,0,2013-08-20 12:54:00
9:54 AM,73.9,66.0,76,30.18,10.0,Calm,Calm,-,N/A,,Scattered Clouds,0,2013-08-20 13:54:00
10:54 AM,77.0,64.0,64,30.18,10.0,South,3.5,-,N/A,,Mostly Cloudy,180,2013-08-20 14:54:00
11:54 AM,80.1,64.0,58,30.18,10.0,Variable,4.6,-,N/A,,Mostly Cloudy,0,2013-08-20 15:54:00
12:54 PM,82.0,64.0,54,30.17,10.0,South,6.9,-,N/A,,Mostly Cloudy,170,2013-08-20 16:54:00
1:54 PM,81.0,64.0,56,30.16,10.0,Calm,Calm,-,N/A,,Mostly Cloudy,0,2013-08-20 17:54:00
2:54 PM,84.0,63.0,49,30.14,10.0,South,8.1,-,N/A,,Scattered Clouds,190,2013-08-20 18:54:00
3:54 PM,84.0,62.1,47,30.12,10.0,South,4.6,-,N/A,,Scattered Clouds,190,2013-08-20 19:54:00
4:54 PM,84.0,63.0,49,30.11,10.0,SW,6.9,-,N/A,,Scattered Clouds,230,2013-08-20 20:54:00
5:54 PM,82.9,62.1,49,30.11,10.0,WSW,3.5,-,N/A,,Scattered Clouds,240,2013-08-20 21:54:00
6:54 PM,82.9,64.0,53,30.10,10.0,Calm,Calm,-,N/A,,Scattered Clouds,0,2013-08-20 22:54:00
7:54 PM,80.1,64.9,60,30.10,10.0,Calm,Calm,-,N/A,,Scattered Clouds,0,2013-08-20 23:54:00
8:54 PM,75.0,66.0,73,30.10,10.0,Calm,Calm,-,N/A,,Mostly Cloudy,0,2013-08-21 00:54:00
9:54 PM,71.1,66.0,84,30.12,10.0,Calm,Calm,-,N/A,,Mostly Cloudy,0,2013-08-21 01:54:00
10:54 PM,70.0,66.0,87,30.12,10.0,Calm,Calm,-,N/A,,Mostly Cloudy,0,2013-08-21 02:54:00
11:54 PM,68.0,64.0,87,30.13,10.0,Calm,Calm,-,N/A,,Mostly Cloudy,0,2013-08-21 03:54:00